Theta_e
322 327 336 339 342 344 345 345 346 348 346 345 344 346 345 347 347 354 358 357 354 352 355 353 353 353 351 352 353 351 350 348 351 347 344 346 349 350 348 347 345 344 348
321 325 337 340 342 343 344 344 344 344 344 343 344 344 346 347 350 348 345 346 348 350 351 351 351 352 350 354 352 350 348 347 350 344 345 330 334 341 344 343 341 340 344
320 322 331 338 340 342 342 342 343 342 342 342 341 343 349 345 338 335 332 336 341 343 344 344 345 345 344 340 341 341 341 339 344 345 340 329 325 332 335 333 330 331 339
320 322 327 333 337 338 339 340 341 344 346 348 347 347 342 333 330 328 328 327 330 330 331 333 335 338 339 340 342 342 342 340 338 341 342 343 341 333 328 330 330 330 328
320 322 326 331 334 336 337 339 342 344 345 343 341 334 330 327 326 325 326 327 327 327 326 327 328 328 327 331 335 339 339 338 335 334 334 338 339 337 331 325 328 329 330
318 321 328 333 333 334 335 337 337 337 337 334 333 331 327 326 322 323 321 322 322 323 325 325 326 327 326 326 326 329 331 333 336 336 338 335 330 330 330 329 328 329 331
317 321 329 330 332 331 332 331 331 329 329 328 328 328 327 328 326 324 321 321 320 320 323 325 325 323 325 325 325 325 325 325 326 328 327 331 332 334 331 330 329 329 331
316 322 329 330 331 330 329 328 327 325 326 325 325 326 327 322 322 324 321 320 319 319 324 323 323 323 323 323 324 320 320 323 321 322 324 322 325 329 331 329 327 324 325
317 322 330 331 330 328 327 327 325 324 324 324 325 325 325 325 322 324 324 320 322 319 320 321 321 321 321 321 322 318 320 321 321 320 321 319 318 321 324 327 328 325 320
321 326 329 330 329 328 327 326 325 323 323 323 324 322 323 323 322 322 321 320 321 320 319 319 320 319 319 318 318 316 317 318 316 316 318 319 318 319 319 319 321 323 321
324 327 328 328 326 325 323 322 322 321 320 321 321 321 320 320 320 320 319 318 319 318 317 317 316 315 315 315 314 314 313 313 314 314 314 314 317 315 316 316 316 316 317
326 327 325 324 323 322 321 320 319 319 319 319 319 318 318 318 317 316 316 317 316 315 313 312 311 311 311 312 311 310 310 309 309 310 310 309 309 312 314 313 314 314 315
324 323 323 322 322 321 320 319 318 317 317 317 317 317 316 315 314 314 314 313 311 311 310 309 309 308 308 308 308 307 306 306 308 308 308 307 307 308 308 310 310 311 312
321 321 320 319 319 318 317 317 315 316 316 315 314 313 312 312 311 310 309 308 308 307 307 307 306 305 305 305 304 304 304 305 305 306 306 306 306 306 307 307 308 308 307
316 316 316 316 314 314 314 313 313 313 313 311 310 309 308 307 307 306 306 305 305 304 304 303 303 303 302 301 301 301 302 303 303 304 304 305 305 304 304 304 306 306 304
308 308 309 309 309 309 309 309 308 308 309 307 305 305 305 304 303 303 302 302 302 301 300 300 299 299 300 297 295 297 300 301 301 302 303 304 303 303 301 300 301 301 301
305 304 303 303 303 304 305 304 304 305 304 303 302 301 301 300 300 299 299 299 298 298 297 298 298 299 300 295 294 295 297 298 299 299 299 300 302 302 303 301 300 300 301
299 300 299 299 299 300 300 301 300 301 300 300 299 298 297 297 297 297 296 296 296 295 296 296 297 298 299 295 294 294 298 297 298 298 298 298 298 300 299 297 297 299 301
296 293 294 295 295 296 297 298 298 297 297 296 296 295 294 294 294 294 294 294 294 294 294 295 297 296 295 295 293 294 298 297 297 298 299 298 297 296 295 295 295 296 297
297 296 296 296 295 294 295 295 294 293 293 292 293 293 293 292 292 292 293 294 294 293 295 296 295 295 298 295 293 294 294 294 294 295 296 297 297 294 294 295 294 293 295
295 295 295 293 292 292 293 291 291 290 291 291 292 291 291 291 292 292 293 293 293 290 293 294 297 298 298 297 293 293 293 293 292 293 294 297 295 294 293 293 295 294 296
293 293 292 291 291 291 291 290 289 290 291 290 290 290 290 290 291 291 292 292 290 291 292 293 295 295 296 294 293 292 292 293 292 293 294 295 294 293 292 293 293 292 294
291 291 290 290 290 290 290 288 288 289 287 287 288 289 289 290 290 291 289 289 290 289 291 291 291 291 293 293 293 292 292 292 293 294 294 293 292 292 293 293 293 293 295
289 289 289 288 288 288 288 288 287 287 287 287 288 289 289 289 289 290 290 289 289 288 288 288 288 290 291 292 294 292 293 293 293 294 293 293 293 293 294 294 294 295 295
289 289 288 287 287 288 288 288 288 287 287 288 287 287 288 288 287 288 288 288 290 289 287 288 289 288 288 291 290 289 290 292 292 291 292 294 294 293 293 293 294 295 295
289 288 287 287 286 287 287 287 288 287 287 286 286 287 287 287 288 287 287 289 289 289 289 289 288 289 289 288 288 288 289 289 290 292 294 295 295 294 294 294 294 294 294
Wind_Speed
4 1 3 5 6 6 6 5 6 6 4 3 2 2 2 2 4 5 6 6 6 7 6 5 6 5 7 9 6 7 9 8 7 6 6 7 9 10 9 2 3 5 11
7 3 3 4 5 4 5 5 4 5 4 3 3 2 2 2 5 4 6 6 5 6 3 3 5 6 6 8 7 6 7 6 5 5 4 7 5 4 4 2 1 3 5
8 6 6 5 5 6 7 6 6 5 5 6 4 3 5 5 5 6 6 8 10 11 8 7 5 4 3 4 4 3 5 5 5 7 5 5 7 2 1 2 2 9 4
8 7 7 5 5 5 6 6 6 6 5 7 7 9 8 7 6 6 7 8 14 13 13 12 10 9 6 6 5 4 5 6 8 4 6 8 6 6 5 2 5 8 10
12 11 8 3 6 7 8 9 11 10 10 11 12 11 13 10 7 7 10 11 10 10 10 9 9 9 7 8 8 7 5 3 4 4 4 6 6 6 6 6 5 10 8
13 9 3 6 9 11 12 12 13 12 12 13 14 15 15 11 8 8 7 6 6 6 9 9 8 8 7 7 6 6 6 6 5 4 5 4 3 5 8 9 11 10 10
14 12 12 11 12 14 14 13 15 14 13 14 14 13 13 11 10 7 6 6 5 5 6 6 7 6 6 6 6 6 6 6 5 5 5 4 5 5 7 9 11 10 9
15 17 16 13 15 16 16 15 15 15 13 13 12 10 11 7 7 6 5 4 4 4 4 5 5 5 6 6 6 5 6 6 6 7 6 6 5 5 6 7 7 9 9
16 17 16 16 16 16 16 16 15 14 12 12 10 9 8 8 7 6 4 3 3 3 4 5 5 6 6 6 7 6 7 7 6 7 7 7 6 6 6 6 7 9 11
14 16 16 16 13 14 12 12 11 11 10 8 6 6 6 6 6 4 4 4 3 4 5 5 5 5 6 6 7 6 7 7 7 7 8 8 7 8 6 7 7 7 10
14 15 15 14 13 12 11 10 9 9 7 6 5 5 4 5 4 5 5 6 6 6 7 7 7 7 8 9 9 10 11 11 11 10 10 11 10 8 8 7 8 8 9
15 16 16 15 13 13 11 10 7 7 6 5 4 4 4 4 4 5 6 6 6 6 6 7 8 9 10 10 11 13 13 15 15 15 14 14 10 12 11 9 11 11 11
14 16 16 14 13 12 9 9 7 6 6 4 4 4 5 5 5 6 6 6 7 7 8 9 10 11 13 13 14 15 16 16 16 15 15 15 15 13 12 12 12 11 10
14 13 13 12 10 9 8 8 7 6 6 5 6 6 6 6 6 6 6 7 8 9 10 11 12 13 14 15 15 14 15 15 15 15 14 14 14 14 13 12 13 12 13
14 13 12 11 10 10 10 9 8 8 7 7 7 6 6 6 6 7 7 8 9 10 12 13 14 15 13 11 13 14 14 14 14 14 13 13 14 18 17 11 13 13 11
14 16 15 14 13 10 9 9 9 9 7 7 7 6 6 7 8 8 10 10 11 13 13 14 14 14 10 11 14 13 12 13 13 13 13 13 16 14 13 15 17 16 13
15 15 14 12 12 11 9 10 8 8 7 7 7 7 8 9 10 11 12 12 13 13 14 14 13 13 12 8 13 15 11 11 12 13 13 13 11 13 13 13 16 16 17
16 14 12 12 11 9 10 8 8 7 7 7 7 8 10 12 12 12 12 12 12 12 12 13 12 12 10 10 12 15 12 11 12 13 13 14 15 14 12 13 13 14 13
14 12 10 10 9 10 8 7 6 7 7 8 10 10 11 12 12 12 12 12 11 12 11 11 12 12 11 11 10 13 11 10 13 12 12 12 13 15 13 13 14 14 14
12 11 10 8 9 9 7 6 8 8 9 10 11 11 11 11 12 12 12 10 10 11 10 11 11 12 12 8 9 12 8 11 9 12 13 16 14 15 16 13 12 12 12
11 9 8 8 8 7 7 9 9 11 11 11 11 10 10 11 10 10 10 10 10 10 11 11 11 11 9 10 10 11 10 8 9 10 11 12 15 15 17 17 14 13 12
9 7 7 7 7 9 10 10 10 10 9 10 10 10 10 9 8 10 9 10 10 10 10 10 9 8 9 9 9 12 14 15 11 12 10 12 18 18 20 17 19 17 15
7 7 8 10 10 11 10 9 10 11 10 10 10 10 10 9 9 9 10 9 9 8 9 8 9 9 8 8 11 12 15 17 12 10 14 23 23 22 18 17 15 14 9
9 8 9 10 10 10 10 10 10 10 10 11 11 10 10 10 9 8 7 7 8 8 8 8 8 9 8 8 9 11 12 14 12 14 11 15 19 21 17 13 10 8 7
8 8 9 8 9 9 9 10 10 10 10 10 9 9 8 9 9 8 7 8 8 8 9 9 9 9 9 10 16 16 12 11 13 16 9 8 7 8 7 7 7 7 7
7 8 8 7 7 8 8 9 9 9 9 8 7 7 7 7 7 7 7 6 8 12 11 11 9 8 10 17 20 22 21 20 20 6 9 9 9 9 9 8 8 7 9
Wind_Direction
253 264 157 193 209 197 193 180 169 165 165 157 191 186 180 29 333 332 331 310 288 270 248 260 273 267 268 276 273 277 277 279 260 267 271 274 259 253 259 213 247 304 284
228 210 184 177 175 144 144 137 147 155 176 177 183 197 172 48 57 43 32 24 31 31 15 331 317 298 294 291 289 271 283 269 248 265 280 292 283 254 249 283 12 290 286
211 223 199 198 162 154 143 147 156 166 185 195 170 175 127 87 77 64 60 54 63 62 55 45 25 5 1 337 342 314 280 282 282 240 267 280 272 283 217 219 342 339 336
244 241 234 193 162 148 146 140 133 135 133 143 118 108 105 108 92 92 83 76 57 55 55 55 52 47 35 16 342 313 288 276 278 286 237 257 275 255 265 250 223 216 225
228 229 228 168 110 125 126 121 117 110 110 112 116 111 110 118 111 91 69 61 60 58 56 54 52 47 38 33 19 9 345 310 283 269 302 260 240 239 251 265 235 225 232
220 216 190 141 119 119 118 119 113 110 116 112 110 111 112 112 105 93 86 74 65 57 44 42 39 37 31 25 13 7 13 353 329 312 294 257 256 247 242 244 255 252 240
209 196 177 168 144 133 127 124 122 117 117 115 116 119 117 111 107 99 82 75 64 52 42 37 32 27 21 14 4 358 350 349 337 335 317 292 269 256 261 266 262 261 254
200 193 181 167 152 142 139 136 133 130 131 126 124 124 124 115 109 96 90 81 68 52 28 25 20 13 6 358 348 328 331 333 329 327 323 307 291 278 253 262 274 261 244
201 190 176 166 157 150 149 145 139 138 138 135 139 135 128 133 126 117 110 92 57 34 17 5 1 3 1 354 345 339 332 328 323 318 317 306 304 297 290 279 274 267 273
194 180 172 162 156 148 140 138 137 138 134 131 123 121 115 102 105 111 85 61 42 7 360 0 4 4 3 357 341 334 331 323 319 311 311 305 305 296 290 283 276 263 271
184 170 162 151 143 138 136 130 140 133 123 111 99 102 101 92 80 62 31 13 5 2 3 357 351 348 341 338 329 322 311 311 306 299 298 299 297 291 287 279 272 265 257
170 160 149 146 149 147 144 138 125 132 123 120 104 99 82 69 59 51 29 16 16 7 356 342 332 327 322 319 315 311 311 306 299 297 293 292 291 287 280 275 275 276 276
160 153 150 144 147 141 143 135 133 130 118 113 115 85 55 34 30 41 33 18 1 349 337 328 323 320 314 312 310 307 304 299 294 293 293 293 290 283 281 280 278 273 264
153 132 133 129 128 127 123 112 109 106 98 94 77 55 42 36 34 34 19 355 340 327 325 319 312 307 307 306 305 305 304 299 297 296 293 292 288 285 286 280 278 275 273
130 127 119 113 107 97 95 95 85 76 78 78 68 52 38 20 5 1 347 334 321 317 312 308 306 305 306 303 326 312 302 301 302 300 295 289 291 292 286 289 286 285 278
97 91 87 81 78 79 80 81 72 64 63 67 57 29 2 345 342 340 329 319 313 310 310 306 308 309 306 342 316 309 304 302 298 299 302 300 295 284 279 274 274 272 274
90 83 77 80 71 65 61 60 59 59 50 40 22 359 339 328 329 326 316 315 313 312 312 313 314 312 311 331 310 311 301 298 294 296 298 301 298 304 299 300 289 276 268
95 84 82 75 67 56 59 52 39 41 29 12 345 336 332 325 321 315 315 319 318 316 319 316 315 311 310 316 302 307 297 294 293 294 293 295 296 295 298 293 290 288 286
87 86 74 75 62 49 27 36 24 24 10 353 339 334 331 316 316 318 325 322 319 322 318 304 303 309 307 301 312 310 310 310 305 301 301 294 292 291 287 287 285 281 280
82 83 78 68 52 36 13 14 20 11 1 345 337 329 317 317 324 326 319 318 313 304 307 306 301 299 301 329 328 322 318 306 308 301 295 288 279 282 280 282 282 276 277
83 83 77 64 43 22 12 24 15 11 351 334 322 320 328 329 319 317 317 316 314 310 302 308 307 308 322 325 340 317 317 305 299 295 295 296 295 283 277 273 282 274 282
79 73 80 68 44 29 22 20 14 352 336 333 332 338 333 321 320 323 316 321 316 308 311 314 314 331 329 329 316 303 291 297 302 293 291 290 289 286 281 281 279 274 271
75 61 53 48 37 28 22 10 2 354 345 338 335 328 327 328 322 323 323 318 318 311 315 321 325 319 326 320 306 302 313 307 302 291 289 292 289 285 281 270 271 271 265
61 51 49 46 38 26 21 11 355 345 334 335 337 335 334 331 329 326 320 319 313 317 319 319 314 320 322 323 335 328 322 313 304 300 293 285 278 274 270 279 274 267 258
66 53 48 45 36 21 15 4 355 342 337 334 335 330 329 335 331 322 317 311 310 319 313 315 320 325 322 327 321 316 311 309 301 305 291 291 293 290 285 274 266 261 252
67 67 61 45 27 16 8 360 350 346 338 335 340 337 331 335 333 334 324 308 296 308 308 316 326 319 310 320 320 314 310 309 304 295 300 309 310 305 301 292 285 265 255